TimeEST,TemperatureF,Dew PointF,Humidity,Sea Level PressureIn,VisibilityMPH,Wind Direction,Wind SpeedMPH,Gust SpeedMPH,PrecipitationIn,Events,Conditions,WindDirDegrees,DateUTC
12:15 AM,46.4,46.4,100,30.09,0.8,Calm,Calm,-,N/A,,Overcast,0,2013-01-16 05:15:00
12:35 AM,46.4,46.4,100,30.09,0.5,Calm,Calm,-,N/A,,Overcast,0,2013-01-16 05:35:00
1:15 AM,46.4,46.4,100,30.07,0.5,Calm,Calm,-,N/A,,Overcast,0,2013-01-16 06:15:00
1:35 AM,46.4,46.4,100,30.06,0.8,Calm,Calm,-,N/A,,Overcast,0,2013-01-16 06:35:00
1:55 AM,48.2,46.4,93,30.06,0.8,Calm,Calm,-,N/A,,Overcast,0,2013-01-16 06:55:00
2:15 AM,48.2,46.4,93,30.05,0.8,Calm,Calm,-,N/A,,Overcast,0,2013-01-16 07:15:00
2:35 AM,48.2,48.2,100,30.03,1.0,Calm,Calm,-,0.01,,Overcast,0,2013-01-16 07:35:00
2:55 AM,48.2,48.2,100,30.02,1.2,Calm,Calm,-,N/A,,Overcast,0,2013-01-16 07:55:00
3:35 AM,48.2,48.2,100,30.04,1.0,Calm,Calm,-,N/A,Rain,Light Rain,0,2013-01-16 08:35:00
3:55 AM,48.2,46.4,93,30.03,1.0,Calm,Calm,-,N/A,,Overcast,0,2013-01-16 08:55:00
4:15 AM,48.2,46.4,93,30.03,1.2,Calm,Calm,-,N/A,,Overcast,0,2013-01-16 09:15:00
4:35 AM,46.4,46.4,100,30.04,1.2,Calm,Calm,-,N/A,,Overcast,0,2013-01-16 09:35:00
4:55 AM,46.4,46.4,100,30.03,1.2,Calm,Calm,-,N/A,,Overcast,0,2013-01-16 09:55:00
5:35 AM,46.4,46.4,100,30.04,1.2,Calm,Calm,-,N/A,,Overcast,0,2013-01-16 10:35:00
5:55 AM,44.6,44.6,100,30.03,1.8,North,5.8,-,N/A,,Overcast,350,2013-01-16 10:55:00
6:35 AM,44.6,44.6,100,30.03,5.0,Calm,Calm,-,N/A,Rain,Light Rain,0,2013-01-16 11:35:00
6:55 AM,44.6,44.6,100,30.03,2.5,Calm,Calm,-,N/A,,Overcast,0,2013-01-16 11:55:00
7:15 AM,44.6,44.6,100,30.03,2.0,Calm,Calm,-,N/A,,Overcast,0,2013-01-16 12:15:00
7:35 AM,44.6,44.6,100,30.03,1.8,Calm,Calm,-,N/A,,Overcast,0,2013-01-16 12:35:00
7:55 AM,44.6,44.6,100,30.03,2.5,Calm,Calm,-,N/A,Rain,Light Rain,0,2013-01-16 12:55:00
8:15 AM,44.6,44.6,100,30.04,3.0,Calm,Calm,-,N/A,,Overcast,0,2013-01-16 13:15:00
8:35 AM,44.6,44.6,100,30.05,3.0,Calm,Calm,-,N/A,,Overcast,0,2013-01-16 13:35:00
8:55 AM,44.6,44.6,100,30.06,1.5,Calm,Calm,-,N/A,,Overcast,0,2013-01-16 13:55:00
9:15 AM,44.6,44.6,100,30.06,0.5,North,3.5,-,N/A,,Overcast,350,2013-01-16 14:15:00
9:35 AM,44.6,44.6,100,30.07,0.5,NNW,3.5,-,N/A,,Overcast,330,2013-01-16 14:35:00
9:55 AM,44.6,44.6,100,30.06,0.8,North,3.5,-,N/A,,Overcast,350,2013-01-16 14:55:00
10:15 AM,44.6,44.6,100,30.07,1.0,NNW,4.6,-,N/A,,Overcast,330,2013-01-16 15:15:00
10:35 AM,44.6,44.6,100,30.06,1.5,North,3.5,-,N/A,,Overcast,360,2013-01-16 15:35:00
10:55 AM,44.6,44.6,100,30.05,1.5,Calm,Calm,-,N/A,,Overcast,0,2013-01-16 15:55:00
11:15 AM,44.6,44.6,100,30.05,1.8,Calm,Calm,-,N/A,,Overcast,0,2013-01-16 16:15:00
11:35 AM,44.6,44.6,100,30.04,2.0,Calm,Calm,-,N/A,,Overcast,0,2013-01-16 16:35:00
11:55 AM,44.6,44.6,100,30.03,1.5,Calm,Calm,-,N/A,,Overcast,0,2013-01-16 16:55:00
12:15 PM,44.6,44.6,100,30.03,1.2,Calm,Calm,-,N/A,,Overcast,0,2013-01-16 17:15:00
12:35 PM,44.6,44.6,100,30.03,1.5,Calm,Calm,-,N/A,,Overcast,0,2013-01-16 17:35:00
12:55 PM,44.6,44.6,100,30.03,1.5,NNW,8.1,-,N/A,,Overcast,330,2013-01-16 17:55:00
1:15 PM,44.6,44.6,100,30.03,2.0,NNW,4.6,-,N/A,,Overcast,340,2013-01-16 18:15:00
1:35 PM,44.6,44.6,100,30.03,2.0,NNW,4.6,-,N/A,Rain,Light Rain,340,2013-01-16 18:35:00
2:15 PM,44.6,44.6,100,30.01,3.0,Calm,Calm,-,0.01,Rain,Heavy Rain,0,2013-01-16 19:15:00
2:35 PM,44.6,44.6,100,30.01,3.0,Calm,Calm,-,0.02,Rain,Light Rain,0,2013-01-16 19:35:00
3:15 PM,46.4,44.6,93,30.00,5.0,Calm,Calm,-,N/A,,Overcast,0,2013-01-16 20:15:00
3:35 PM,46.4,46.4,100,29.99,4.0,Calm,Calm,-,0.01,Rain,Light Rain,0,2013-01-16 20:35:00
3:55 PM,46.4,46.4,100,30.01,4.0,Calm,Calm,-,N/A,Rain,Light Rain,0,2013-01-16 20:55:00
4:15 PM,46.4,46.4,100,29.99,2.5,Calm,Calm,-,0.01,Rain,Light Rain,0,2013-01-16 21:15:00
4:35 PM,46.4,46.4,100,30.00,10.0,Calm,Calm,-,0.01,,Drizzle,0,2013-01-16 21:35:00
4:55 PM,46.4,46.4,100,30.00,10.0,Calm,Calm,-,N/A,,Overcast,0,2013-01-16 21:55:00
5:35 PM,48.2,46.4,93,29.99,7.0,South,4.6,-,N/A,,Overcast,170,2013-01-16 22:35:00
5:55 PM,48.2,48.2,100,29.99,7.0,South,6.9,-,N/A,,Overcast,190,2013-01-16 22:55:00
6:15 PM,48.2,48.2,100,29.98,7.0,SSE,9.2,-,N/A,,Overcast,160,2013-01-16 23:15:00
6:35 PM,48.2,48.2,100,29.98,7.0,South,5.8,-,N/A,,Overcast,170,2013-01-16 23:35:00
6:55 PM,50.0,48.2,94,29.99,7.0,South,6.9,-,N/A,,Overcast,190,2013-01-16 23:55:00
7:15 PM,50.0,48.2,94,29.98,7.0,South,6.9,-,N/A,,Overcast,190,2013-01-17 00:15:00
7:35 PM,50.0,50.0,100,29.98,7.0,SSW,4.6,-,N/A,,Overcast,210,2013-01-17 00:35:00
7:55 PM,50.0,50.0,100,29.98,7.0,SSW,4.6,-,N/A,,Overcast,200,2013-01-17 00:55:00
8:15 PM,51.8,50.0,94,29.98,7.0,South,3.5,-,N/A,,Overcast,190,2013-01-17 01:15:00
8:35 PM,51.8,50.0,94,29.98,7.0,South,4.6,-,N/A,,Overcast,180,2013-01-17 01:35:00
8:55 PM,51.8,50.0,94,29.99,7.0,SSW,3.5,-,N/A,,Overcast,210,2013-01-17 01:55:00
9:15 PM,51.8,51.8,100,30.02,7.0,NNW,4.6,-,N/A,,Overcast,340,2013-01-17 02:15:00
9:35 PM,51.8,51.8,100,30.01,10.0,Calm,Calm,-,N/A,Rain,Rain,0,2013-01-17 02:35:00
9:55 PM,51.8,51.8,100,30.01,7.0,Calm,Calm,-,N/A,,Overcast,0,2013-01-17 02:55:00
10:15 PM,51.8,50.0,94,30.02,7.0,Calm,Calm,-,N/A,,Overcast,0,2013-01-17 03:15:00
10:35 PM,50.0,48.2,94,30.01,5.0,Calm,Calm,-,N/A,,Overcast,0,2013-01-17 03:35:00
10:55 PM,50.0,48.2,94,30.01,4.0,Calm,Calm,-,N/A,Rain,Light Rain,0,2013-01-17 03:55:00
11:15 PM,48.2,48.2,100,30.01,4.0,Calm,Calm,-,N/A,,Overcast,0,2013-01-17 04:15:00
11:35 PM,48.2,48.2,100,30.01,4.0,Calm,Calm,-,N/A,,Overcast,0,2013-01-17 04:35:00
11:55 PM,48.2,48.2,100,30.01,3.0,Calm,Calm,-,N/A,,Overcast,0,2013-01-17 04:55:00